sat.trackr.live / text

‹ back to catalog

COSMOS 2533

NORAD 43867 · 2018-107A

PAYLOAD ACTIVE UNKNOWN

§ Identity

Operator
Country
CIS
Launch date
2018-12-21
Launch site
TYMSC
Launch vehicle
Mass (kg)
RCS (m²)

Purposes: comms

External: N2YO · Heavens-Above · Gunter

§ Orbital elements

Epoch: 2026-09-13T02:12:41.758272Z

Period
1,436.06 min
Inclination
0.0178°
Eccentricity
0.0000590
Mean motion
1.00274247 rev/d
Perigee alt
35,783.4 km
Apogee alt
35,788.4 km
Semi-major
42,164.0 km
B*
0.0000e+0
RAAN
122.7751°
Arg perigee
157.3430°
Mean anomaly
175.1259°
Rev number
2,832

§ Raw data

COSMOS 25331 43867U 18107A   26256.09214998 -.00000051  00000+0  00000+0 0  99932 43867   0.0178 122.7751 0000590 157.3430 175.1259  1.00274247 28320

JSON: /api/v1/satellites/43867 · /tle

For live sub-satellite position, see the globe view (requires WebGL).

§ Visibility from observer

Set your observer location to see the next 7 days of passes ≥ 10°. The values pass through the URL so the page stays shareable.

No JS? Fill the form by hand. The geolocation button needs JavaScript.